Temp
62 62 62 62 62 62 62 62 62 62 62 62 62 62 62 62 62 60 54 63 66 68 67 68 67 65 64 63 67 66 52 50 56 59 64 70 68 70 74 71 73 72 69 71 71
61 61 61 61 61 61 62 62 62 62 62 62 62 62 62 61 57 54 65 68 68 68 63 62 59 63 56 57 62 58 51 55 65 68 68 70 70 69 67 68 67 68 69 70 67
61 61 61 61 61 61 61 62 61 61 61 61 61 62 61 61 51 54 67 68 68 67 64 66 65 60 55 55 56 59 52 61 66 69 71 69 68 72 66 64 68 66 63 64 67
60 60 60 60 60 61 61 61 61 61 61 61 61 61 60 57 37 61 67 68 68 67 63 59 59 54 52 51 55 50 60 63 64 68 68 66 72 68 67 67 75 74 66 65 65
60 59 59 59 60 60 60 61 61 61 61 61 61 61 56 48 48 64 65 66 67 63 58 56 54 55 50 55 55 51 56 63 67 67 66 69 66 68 67 69 73 74 65 63 65
59 59 59 59 59 60 60 60 60 60 61 61 61 61 50 39 63 66 65 64 63 61 57 57 57 60 57 56 53 58 56 58 64 65 66 64 65 66 69 72 71 68 62 63 64
59 59 59 59 59 59 59 59 60 60 60 60 61 58 48 46 65 66 65 62 63 62 56 59 60 56 57 54 58 57 49 55 60 62 63 66 58 62 69 72 67 66 63 63 65
58 58 58 58 58 58 59 59 59 59 59 60 60 55 42 61 63 61 62 60 63 63 60 63 61 57 55 55 54 48 47 43 58 61 64 61 52 65 71 69 65 65 64 64 67
58 57 57 58 58 58 58 58 58 59 60 60 54 48 41 60 53 58 61 55 58 59 59 62 58 53 51 47 43 45 39 42 51 63 62 58 53 66 70 69 65 65 65 65 67
57 57 58 58 58 58 58 59 59 59 58 56 52 42 45 46 55 59 60 59 53 54 52 50 49 47 46 45 37 39 41 45 47 57 60 55 57 65 69 68 66 67 66 65 66
57 58 58 58 58 58 57 56 51 47 47 43 44 42 47 56 59 57 59 54 52 46 43 48 44 42 45 49 52 47 46 45 51 59 57 56 57 63 66 65 65 67 67 65 66
57 57 57 57 57 57 56 49 47 46 38 46 46 46 49 52 44 52 56 46 44 37 41 43 40 49 52 51 50 48 45 45 51 58 52 55 57 62 63 63 66 68 68 67 66
57 57 57 57 57 55 54 49 52 49 38 42 46 45 46 51 45 47 52 49 42 36 38 38 46 52 51 48 44 45 45 46 47 45 50 49 52 58 62 63 66 68 71 70 69
56 56 56 57 52 56 51 55 53 51 32 38 40 44 48 49 43 52 52 49 42 36 40 42 49 48 47 45 47 41 50 51 45 43 39 49 39 54 59 57 61 64 65 70 70
56 56 56 56 52 51 52 56 53 46 21 39 41 50 47 43 45 45 52 47 42 41 42 38 42 46 43 46 50 44 49 48 47 42 42 41 39 52 59 56 57 61 65 66 71
55 55 55 56 55 56 57 55 47 31 23 33 40 37 40 44 44 46 46 49 47 42 42 39 45 47 47 49 50 47 43 41 39 39 34 42 42 47 54 58 60 62 65 66 66
55 55 54 57 50 57 54 47 32 26 38 32 32 36 37 39 42 43 40 41 38 33 32 34 36 42 46 40 42 43 41 30 29 30 32 45 40 48 59 61 64 63 64 67 67
55 55 56 58 58 55 49 37 27 29 31 39 36 37 34 38 41 41 38 35 42 39 34 32 29 37 43 41 38 41 41 32 28 29 29 38 36 45 62 61 60 67 68 69 69
54 55 54 56 56 52 43 31 27 30 33 33 34 33 33 38 39 40 40 38 40 42 34 33 31 37 41 43 45 37 36 41 34 31 31 34 42 51 54 54 57 58 59 66 66
50 51 52 56 55 48 35 32 31 36 36 34 30 35 32 34 36 37 37 40 39 43 45 36 31 33 39 43 42 41 43 32 32 28 27 34 35 41 46 54 55 56 57 58 59
48 42 51 55 52 41 31 30 34 42 38 32 32 32 35 35 36 36 35 40 44 41 45 42 38 32 36 35 34 37 35 37 38 34 30 30 35 44 49 51 53 55 55 55 57
47 32 51 52 35 33 31 32 42 42 43 37 36 34 34 37 35 35 35 38 45 45 38 40 36 31 32 37 39 42 39 41 33 30 32 31 37 49 47 47 50 52 54 54 55
34 40 52 50 31 31 32 37 42 40 40 39 36 37 36 34 32 35 36 42 44 43 39 40 34 28 30 34 36 36 40 43 40 36 32 31 37 51 49 46 47 47 49 52 52
39 31 37 39 38 34 30 31 32 44 42 43 39 41 36 33 36 34 35 39 42 42 42 42 35 33 29 31 36 33 37 41 40 32 35 36 41 47 47 47 46 46 47 47 50
36 29 31 28 30 34 36 34 34 32 42 43 38 37 35 31 32 32 36 37 41 41 40 37 31 33 33 34 37 37 38 39 37 38 36 41 43 47 47 47 46 47 49 49 49
33 32 33 29 34 34 35 30 32 37 38 36 34 36 37 33 34 32 35 35 35 38 37 37 31 33 30 34 34 32 35 40 40 41 40 42 41 50 50 50 50 50 49 48 48
42 41 38 32 32 32 30 33 35 39 41 42 40 37 34 36 38 40 41 40 39 37 34 34 32 31 28 31 32 28 33 37 39 43 43 37 45 51 50 51 50 50 49 48 49
MSLP
1018.29 1018.02 1017.95 1017.75 1017.53 1017.27 1016.99 1016.94 1016.91 1016.95 1016.70 1016.51 1016.13 1015.89 1015.83 1015.39 1015.18 1014.86 1014.39 1013.97 1013.79 1013.98 1014.06 1014.22 1014.70 1015.01 1015.26 1015.70 1014.98 1014.28 1013.74 1012.15 1011.56 1010.45 1009.22 1008.57 1008.25 1008.53 1008.39 1008.79 1009.44 1010.30 1011.06 1011.38 1013.72
1018.12 1017.89 1017.82 1017.57 1017.31 1017.13 1016.94 1016.75 1016.61 1016.53 1016.43 1016.33 1016.06 1015.85 1015.60 1015.45 1015.00 1013.96 1013.78 1013.49 1013.56 1014.11 1014.48 1014.23 1014.29 1014.80 1015.71 1015.52 1014.86 1014.38 1013.15 1011.88 1010.97 1009.92 1009.26 1008.57 1008.50 1008.63 1008.99 1009.35 1010.07 1011.09 1012.21 1012.86 1013.99
1017.90 1017.78 1017.61 1017.43 1017.06 1016.89 1016.69 1016.48 1016.37 1016.24 1016.07 1015.95 1015.91 1015.69 1015.53 1015.46 1014.60 1012.40 1012.37 1012.67 1012.96 1013.69 1014.28 1013.92 1014.01 1014.76 1015.27 1015.15 1015.18 1014.00 1012.86 1011.79 1010.82 1010.11 1009.58 1009.01 1008.77 1008.71 1009.18 1009.52 1009.78 1011.07 1012.71 1013.66 1014.09
1017.50 1017.49 1017.33 1017.06 1016.80 1016.60 1016.31 1016.15 1016.08 1015.95 1015.74 1015.73 1015.74 1015.55 1015.44 1015.46 1014.35 1011.70 1011.38 1011.66 1012.22 1013.02 1013.62 1013.62 1013.63 1013.73 1013.76 1013.91 1014.73 1014.78 1013.03 1011.99 1011.06 1010.45 1009.99 1009.30 1008.83 1008.91 1009.20 1008.83 1009.23 1010.42 1012.29 1013.67 1014.21
1017.20 1017.15 1017.02 1016.79 1016.50 1016.36 1016.09 1015.91 1015.77 1015.58 1015.45 1015.42 1015.52 1015.37 1015.47 1014.63 1013.01 1011.48 1011.86 1012.21 1012.46 1012.74 1012.70 1012.96 1012.58 1012.51 1012.57 1013.50 1014.21 1014.30 1013.44 1012.32 1011.26 1010.69 1010.30 1009.80 1009.24 1008.68 1008.89 1009.14 1009.10 1010.21 1012.14 1013.55 1014.38
1016.93 1016.79 1016.68 1016.43 1016.19 1016.02 1015.81 1015.65 1015.43 1015.21 1015.13 1015.01 1015.13 1015.14 1015.31 1013.52 1011.81 1011.76 1011.79 1012.04 1012.12 1012.20 1012.21 1012.45 1011.56 1011.81 1012.41 1012.88 1013.34 1013.07 1013.49 1012.60 1011.58 1010.81 1010.24 1010.13 1009.42 1008.93 1008.57 1008.97 1009.44 1010.60 1012.07 1013.30 1013.99
1016.47 1016.34 1016.23 1016.06 1015.82 1015.60 1015.43 1015.32 1015.06 1014.88 1014.80 1014.59 1014.54 1014.70 1014.04 1011.63 1011.18 1011.02 1011.32 1011.28 1011.62 1011.57 1011.50 1011.58 1011.80 1012.25 1011.44 1012.45 1013.17 1013.43 1014.18 1013.06 1011.44 1010.92 1010.22 1010.13 1009.69 1008.94 1008.73 1008.77 1009.78 1010.85 1012.03 1013.08 1013.56
1015.86 1015.75 1015.62 1015.46 1015.28 1015.07 1014.97 1014.78 1014.46 1014.39 1014.21 1014.04 1014.16 1014.35 1012.14 1011.29 1011.20 1010.93 1011.10 1011.16 1010.98 1011.14 1011.33 1011.60 1011.70 1011.65 1011.22 1012.14 1012.95 1014.09 1014.26 1013.51 1010.97 1011.18 1010.30 1010.13 1009.08 1008.30 1008.48 1008.93 1009.70 1010.72 1011.78 1012.58 1012.95
1015.19 1014.99 1014.90 1014.83 1014.72 1014.52 1014.59 1014.17 1013.84 1013.55 1013.43 1013.37 1013.64 1013.87 1011.36 1010.75 1010.02 1009.73 1010.38 1010.68 1010.75 1010.84 1010.92 1011.44 1011.82 1011.11 1011.12 1011.39 1012.55 1013.13 1013.29 1012.93 1012.13 1010.79 1010.18 1009.88 1008.83 1007.92 1007.94 1008.76 1009.35 1010.17 1011.12 1011.84 1012.28
1014.26 1014.06 1014.20 1014.21 1014.22 1014.26 1014.14 1013.60 1012.64 1012.65 1012.82 1013.12 1013.23 1013.29 1011.95 1009.98 1008.90 1008.51 1009.41 1009.93 1010.68 1010.41 1011.20 1011.25 1011.09 1010.09 1010.13 1010.86 1010.91 1011.43 1012.10 1012.31 1011.15 1010.14 1009.78 1009.44 1008.75 1007.53 1007.32 1008.00 1008.53 1009.33 1010.23 1011.04 1011.49
1013.67 1013.45 1013.71 1013.77 1013.93 1014.09 1013.88 1012.98 1012.45 1012.86 1013.13 1013.01 1012.43 1011.88 1010.24 1009.39 1008.12 1007.99 1008.52 1009.60 1010.50 1010.93 1010.08 1009.70 1008.71 1007.36 1007.82 1008.21 1009.88 1010.81 1011.30 1011.05 1010.59 1010.04 1009.87 1009.27 1008.97 1007.63 1007.20 1007.56 1007.90 1008.60 1009.29 1009.94 1010.59
1013.91 1013.53 1013.66 1013.63 1013.85 1013.84 1013.87 1013.53 1013.96 1014.34 1012.79 1011.80 1011.00 1010.68 1010.28 1010.35 1009.33 1007.86 1008.47 1009.68 1010.28 1010.37 1010.45 1009.75 1007.27 1007.65 1008.29 1008.86 1009.78 1010.38 1011.02 1010.62 1011.00 1010.39 1010.83 1009.83 1008.76 1007.82 1007.42 1007.28 1007.54 1007.65 1008.27 1008.99 1010.02
1014.16 1013.94 1013.91 1013.77 1013.82 1013.58 1013.34 1013.70 1014.10 1014.17 1013.40 1010.82 1010.33 1009.84 1009.27 1009.13 1008.68 1007.89 1008.37 1009.19 1010.13 1011.07 1010.49 1008.82 1006.32 1007.49 1007.91 1008.45 1009.15 1009.60 1009.87 1010.46 1010.75 1011.60 1011.72 1010.85 1009.10 1007.55 1006.96 1006.77 1007.06 1007.00 1007.36 1008.05 1008.75
1014.54 1014.31 1014.10 1013.77 1013.91 1013.00 1013.23 1013.52 1013.65 1013.61 1013.03 1010.72 1009.94 1009.38 1008.81 1008.15 1007.73 1007.58 1008.51 1009.00 1009.90 1009.94 1009.67 1008.83 1007.23 1007.42 1007.31 1008.07 1009.04 1009.62 1009.98 1010.41 1011.14 1011.81 1011.00 1010.78 1008.68 1006.85 1006.55 1006.60 1006.60 1006.60 1006.76 1007.03 1007.82
1014.94 1014.61 1014.21 1013.77 1013.55 1013.04 1013.57 1013.15 1013.36 1013.56 1012.92 1010.56 1009.90 1009.39 1008.81 1008.31 1007.81 1007.17 1007.75 1008.76 1008.23 1007.66 1008.68 1008.13 1007.16 1006.74 1007.20 1007.33 1009.08 1009.51 1010.22 1010.90 1011.26 1011.82 1011.15 1010.52 1009.51 1005.66 1006.19 1005.83 1006.09 1006.26 1006.38 1006.43 1006.80
1014.92 1014.61 1014.18 1013.41 1013.33 1013.17 1013.14 1012.96 1013.18 1013.52 1011.61 1010.40 1009.93 1009.44 1008.72 1007.75 1007.56 1007.40 1007.57 1007.54 1007.50 1007.26 1007.64 1008.53 1008.19 1007.53 1007.62 1008.19 1009.30 1010.22 1010.93 1011.82 1011.88 1011.83 1011.01 1009.86 1008.82 1005.91 1004.34 1004.13 1005.00 1005.51 1005.82 1006.00 1006.47
1014.69 1014.36 1014.08 1013.49 1013.21 1012.93 1013.02 1012.89 1013.27 1012.76 1011.20 1011.27 1010.58 1009.84 1008.84 1007.80 1007.46 1007.39 1007.80 1007.58 1007.67 1008.20 1008.83 1009.31 1009.30 1008.90 1008.35 1009.22 1010.26 1010.58 1011.02 1012.48 1012.72 1012.29 1010.68 1009.72 1009.02 1004.09 1003.76 1003.49 1003.81 1004.43 1004.99 1005.34 1005.96
1014.26 1013.76 1013.17 1013.01 1013.09 1013.17 1012.98 1013.02 1013.30 1012.72 1012.27 1012.01 1011.13 1009.94 1009.06 1008.29 1007.60 1007.60 1008.17 1008.14 1008.22 1008.23 1009.18 1009.70 1010.74 1009.93 1009.30 1009.35 1010.11 1010.48 1010.31 1011.81 1011.43 1011.24 1010.69 1009.85 1006.96 1004.29 1003.55 1003.33 1003.52 1003.49 1003.97 1004.56 1005.20
1013.88 1013.05 1012.79 1012.72 1013.07 1013.20 1013.10 1013.42 1013.94 1013.95 1013.65 1012.71 1011.52 1010.19 1009.03 1008.63 1008.20 1007.82 1008.26 1008.38 1008.48 1008.63 1009.08 1009.86 1010.90 1010.85 1010.04 1009.98 1010.09 1011.12 1011.18 1011.82 1011.53 1010.71 1010.09 1008.81 1006.58 1004.83 1003.88 1003.75 1003.70 1003.75 1003.62 1004.09 1004.62
1014.12 1013.21 1012.59 1012.71 1012.99 1013.06 1013.43 1014.01 1014.15 1014.07 1013.80 1013.27 1012.27 1010.97 1010.00 1009.10 1008.81 1008.76 1008.72 1009.04 1009.13 1008.82 1009.11 1010.17 1010.79 1011.32 1010.98 1010.46 1011.06 1010.67 1011.15 1011.89 1011.57 1010.88 1009.67 1007.60 1006.46 1005.01 1004.16 1003.93 1003.94 1004.14 1004.25 1004.64 1004.99
1014.28 1013.54 1012.97 1012.76 1013.04 1013.30 1014.16 1014.39 1014.12 1013.47 1013.72 1013.55 1012.70 1011.75 1010.83 1010.07 1009.62 1009.42 1009.28 1009.46 1009.13 1009.52 1009.32 1010.07 1010.32 1011.60 1011.41 1011.42 1011.08 1011.28 1011.10 1011.34 1011.07 1010.61 1009.54 1007.98 1006.53 1005.45 1004.37 1004.11 1004.37 1004.42 1004.52 1005.31 1005.88
1014.20 1014.23 1013.15 1012.88 1013.93 1014.79 1014.82 1014.30 1013.91 1013.26 1013.27 1013.21 1012.75 1012.30 1011.44 1010.69 1010.23 1009.93 1010.04 1009.83 1009.80 1009.33 1009.67 1010.17 1010.72 1011.65 1012.10 1012.02 1011.53 1010.74 1010.68 1010.48 1010.55 1010.70 1009.89 1008.69 1007.15 1006.01 1005.53 1005.32 1005.18 1005.36 1005.79 1006.08 1006.78
1014.71 1014.14 1013.10 1012.93 1014.60 1015.21 1015.35 1014.54 1013.80 1013.22 1012.97 1012.81 1012.49 1012.36 1012.10 1011.56 1011.17 1010.76 1010.36 1010.24 1009.99 1009.90 1010.11 1010.43 1011.27 1011.95 1012.36 1012.55 1011.89 1011.40 1010.77 1010.31 1010.55 1010.53 1009.73 1008.49 1007.36 1006.59 1006.18 1006.14 1006.25 1006.51 1006.50 1006.88 1007.50
1015.05 1015.30 1014.92 1014.95 1015.35 1015.33 1015.22 1015.08 1014.19 1013.34 1012.91 1012.83 1012.66 1012.09 1012.12 1011.91 1011.71 1011.46 1011.27 1010.98 1010.54 1010.59 1010.61 1010.73 1011.39 1011.56 1012.05 1011.89 1011.42 1011.39 1010.60 1010.34 1010.45 1010.21 1009.09 1008.08 1007.31 1007.11 1006.74 1006.82 1007.00 1007.23 1007.62 1007.88 1008.18
1015.88 1016.70 1017.08 1016.78 1016.45 1015.80 1015.22 1015.05 1014.32 1013.76 1013.18 1012.88 1012.72 1012.71 1012.60 1012.53 1012.16 1012.09 1011.85 1011.54 1011.23 1011.19 1011.20 1011.61 1011.78 1011.95 1012.13 1011.96 1011.44 1010.90 1010.47 1010.16 1009.86 1009.64 1008.83 1008.01 1007.56 1007.49 1007.18 1007.26 1007.60 1007.79 1007.88 1008.38 1008.81
1015.97 1016.51 1017.22 1016.96 1016.56 1015.89 1015.57 1015.28 1014.72 1014.03 1013.60 1013.41 1013.48 1013.59 1013.36 1013.33 1013.45 1013.02 1012.66 1012.39 1012.33 1012.10 1012.04 1012.24 1012.18 1012.04 1012.19 1011.97 1011.75 1011.28 1010.64 1010.14 1009.80 1009.69 1009.39 1008.45 1007.75 1007.24 1007.43 1007.55 1007.67 1008.03 1008.34 1008.70 1009.08
1015.69 1015.92 1016.17 1016.82 1016.42 1015.99 1015.87 1015.38 1014.94 1014.38 1014.11 1013.95 1013.84 1013.80 1013.97 1014.17 1014.02 1013.66 1013.35 1013.16 1012.95 1012.65 1012.61 1012.63 1012.47 1012.29 1012.49 1012.42 1012.18 1011.51 1010.34 1010.05 1009.71 1009.29 1009.06 1008.52 1007.84 1007.77 1007.67 1007.70 1007.87 1008.28 1008.74 1008.77 1008.98
Wind_Speed
13 13 13 13 14 14 15 15 15 15 13 15 14 13 14 16 17 15 16 12 7 8 8 8 9 7 4 4 5 3 5 6 12 11 16 5 5 3 4 6 5 4 7 14 20
14 14 14 14 14 15 16 17 15 16 15 13 16 14 13 15 16 20 17 18 16 10 8 12 11 10 5 3 4 7 5 6 8 11 12 7 7 7 3 8 5 9 14 19 19
15 16 15 16 15 16 16 17 15 15 15 14 15 14 14 11 15 13 21 19 20 14 13 15 9 15 12 6 5 5 7 6 12 15 9 8 6 8 5 8 8 14 16 17 16
15 16 17 17 16 17 17 17 16 16 15 15 14 14 11 7 10 3 18 19 19 15 14 14 13 13 11 17 9 6 11 10 18 16 7 6 7 8 8 2 13 15 21 17 14
17 16 17 17 16 17 17 18 17 16 15 16 13 13 8 10 13 25 21 18 9 15 20 20 17 16 19 16 11 13 13 15 15 14 7 8 13 7 11 3 4 20 22 19 17
18 17 17 17 17 18 18 18 18 16 16 16 11 11 7 21 10 18 17 14 14 15 21 20 12 14 12 16 20 6 14 21 18 10 6 6 11 5 7 8 9 21 19 19 19
18 18 18 18 18 19 19 19 17 16 16 16 14 10 14 24 6 11 14 17 15 16 23 21 16 16 7 18 6 9 3 13 19 14 8 7 11 12 6 10 15 14 15 17 18
19 17 17 18 18 18 18 18 17 17 16 16 15 11 20 8 13 22 20 13 15 16 18 20 19 15 9 8 13 10 5 8 14 16 11 11 11 14 10 10 14 13 14 16 19
21 19 18 17 17 16 17 18 17 18 17 17 13 11 16 9 18 25 20 21 11 16 13 16 21 11 8 14 7 7 8 20 16 16 9 11 6 11 13 13 13 14 15 15 15
18 17 15 13 13 12 15 17 19 16 3 3 4 6 5 14 14 14 19 18 10 12 12 11 12 15 7 18 19 15 24 15 21 11 14 9 15 9 17 16 16 16 16 16 16
12 7 7 7 8 10 8 6 2 3 1 5 12 11 22 14 15 10 15 13 12 2 14 21 15 22 34 30 23 13 15 18 15 15 11 12 15 16 15 11 13 15 16 17 18
12 8 5 5 7 7 5 3 4 2 12 16 21 19 22 9 7 12 18 12 10 11 13 15 23 25 16 17 24 18 16 23 8 16 5 11 17 17 11 11 13 16 16 16 15
12 10 7 6 7 5 5 4 2 0 7 8 5 8 7 14 8 4 14 7 12 12 21 17 12 13 23 22 17 14 23 17 11 5 12 6 17 17 11 10 11 10 15 15 19
11 9 9 11 5 4 1 4 4 3 6 4 3 0 4 2 8 8 5 5 8 21 21 15 15 26 22 19 16 12 11 17 13 17 12 11 7 19 16 10 11 12 9 17 17
10 10 11 6 6 4 4 4 3 3 6 4 2 4 3 5 3 4 8 12 13 3 9 3 4 28 24 26 21 7 7 5 11 13 8 6 3 9 19 20 13 14 13 10 19
11 11 13 1 3 2 6 5 1 2 6 6 4 8 5 4 7 4 1 2 1 7 9 3 4 5 6 12 16 9 10 6 4 3 7 14 13 13 18 23 18 17 16 12 10
13 13 7 4 4 5 5 2 2 4 6 9 6 6 7 4 4 3 3 3 1 3 3 6 7 3 4 14 7 4 12 3 3 4 3 15 11 13 15 10 16 19 19 18 12
15 17 2 4 5 5 3 3 2 3 4 5 5 8 5 7 4 7 5 3 5 5 3 4 1 5 3 6 8 11 8 5 5 6 4 5 15 13 23 13 6 15 21 19 20
17 2 2 2 3 2 2 3 4 5 7 10 10 4 5 3 5 6 4 2 2 2 4 3 2 6 5 2 7 3 4 3 1 1 5 7 6 6 5 6 7 6 7 18 15
4 3 2 4 2 3 4 2 2 2 5 3 4 6 5 6 4 4 3 3 4 3 2 2 4 3 4 5 5 3 9 5 1 4 4 7 3 5 7 13 8 9 8 6 4
3 3 2 5 1 4 2 2 4 3 1 2 4 5 4 4 3 1 5 2 4 3 5 1 1 4 2 1 5 4 5 2 1 1 2 3 4 4 5 3 8 8 7 7 6
2 2 2 3 4 2 1 2 4 6 3 4 3 3 5 5 5 3 2 4 4 3 4 2 3 3 3 2 4 2 5 5 3 4 1 2 3 5 5 5 5 6 7 7 7
1 2 2 3 3 2 3 5 4 7 7 6 5 3 3 4 2 3 3 6 4 3 3 4 2 4 3 1 3 3 4 6 7 2 5 3 1 3 4 4 4 3 5 8 8
3 3 4 5 4 3 1 4 5 3 3 7 5 2 4 4 5 4 3 5 4 4 12 5 2 0 2 2 3 4 6 6 6 3 4 6 2 3 5 5 4 4 3 5 7
3 1 1 2 3 4 2 1 5 7 6 9 5 13 3 4 5 5 5 3 5 6 4 3 2 3 4 3 5 1 9 11 11 12 2 1 4 6 5 6 4 3 5 6 5
3 3 3 2 4 2 3 3 4 5 7 5 5 10 11 6 7 6 6 5 4 4 3 2 1 1 2 4 3 2 3 9 12 12 13 16 12 4 2 4 5 4 4 5 5
0 1 1 1 1 2 0 1 3 5 3 5 7 3 6 5 6 6 4 2 3 1 2 2 1 1 3 2 3 4 5 8 8 7 13 14 12 7 8 9 2 5 2 2 4
Wind_Direction
311 326 321 318 316 312 307 302 298 297 293 296 299 303 307 308 310 280 260 242 225 259 292 254 204 161 93 248 260 289 252 230 238 247 265 108 144 298 30 112 86 60 27 131 142
323 320 317 315 314 314 310 301 298 294 290 293 295 297 296 312 303 281 271 253 245 262 251 218 189 181 159 219 226 215 226 218 256 252 270 181 196 165 159 142 158 103 92 120 149
318 314 311 312 310 308 308 302 296 290 287 285 292 294 295 320 298 278 246 244 240 229 242 217 202 174 201 151 229 236 243 228 251 268 323 332 223 166 182 199 179 155 139 144 166
314 309 309 308 307 307 307 299 292 286 286 278 289 293 294 298 261 34 33 212 222 212 218 243 208 190 197 198 196 256 268 254 266 277 302 291 284 199 194 231 172 161 146 152 169
307 306 304 303 305 303 302 297 292 288 287 275 286 292 292 252 238 263 277 295 297 220 215 217 212 191 204 200 202 217 265 268 268 256 279 296 283 225 196 209 244 141 142 161 173
306 304 299 303 304 301 299 296 293 289 284 279 276 288 257 253 270 257 271 274 257 251 224 215 217 199 204 209 204 145 229 265 269 282 224 252 263 273 224 156 118 135 149 167 176
299 296 295 297 297 296 296 293 292 285 280 279 276 276 250 243 234 295 257 238 251 234 230 223 228 194 133 196 170 222 293 298 263 259 250 205 268 241 213 154 140 150 154 171 181
294 289 288 289 291 291 292 292 290 282 278 276 275 270 261 278 252 255 253 264 237 246 232 231 226 232 159 111 157 179 111 247 253 230 246 172 245 224 185 170 156 162 167 177 185
291 283 280 283 288 291 292 293 285 279 278 274 271 233 265 295 242 238 230 231 235 242 229 227 215 227 133 158 158 173 207 215 238 215 213 192 235 237 184 184 171 174 175 176 187
296 282 269 277 287 295 296 293 276 283 308 253 241 246 268 261 248 234 226 210 224 241 209 217 223 195 178 175 198 186 200 198 210 217 213 196 246 241 182 183 181 182 173 177 189
328 301 272 283 295 298 313 316 323 329 148 239 255 241 288 297 261 229 199 182 205 242 208 208 205 196 195 198 190 169 194 201 213 216 223 225 231 252 174 183 191 181 176 178 191
10 27 8 325 299 295 284 275 53 306 290 239 249 239 252 280 288 239 158 176 189 237 278 205 213 206 177 175 199 194 191 208 214 219 247 231 226 231 184 198 206 185 183 178 173
15 15 355 323 303 272 254 65 282 75 270 276 227 245 222 214 225 256 176 168 179 233 245 233 216 184 184 178 194 192 203 196 193 164 225 312 249 221 216 181 210 225 184 176 177
7 3 334 312 276 343 27 12 352 89 283 260 201 339 255 202 228 174 191 193 170 224 242 216 231 184 180 177 180 196 207 197 155 174 204 190 242 216 204 194 198 217 210 177 178
356 351 337 315 317 315 333 318 340 120 286 31 305 321 262 234 88 239 154 205 193 150 160 193 210 165 174 184 175 195 152 210 179 191 169 204 256 207 199 214 196 204 220 202 181
333 329 328 176 264 2 334 333 93 230 255 349 326 344 292 232 165 99 182 76 54 41 43 18 351 151 181 157 162 123 101 66 51 149 215 187 215 227 204 200 195 197 204 211 191
317 311 308 307 287 359 333 238 324 242 8 349 330 333 306 344 142 62 69 81 43 87 73 18 346 5 126 97 107 149 138 115 165 185 224 181 199 227 203 210 197 195 195 199 205
314 312 265 246 316 347 273 27 273 17 348 350 312 299 23 343 39 125 124 33 36 63 96 119 268 359 343 115 163 152 147 170 160 182 153 147 227 218 224 255 275 205 193 194 190
313 276 233 146 298 252 259 26 7 347 333 323 306 304 351 13 23 29 103 92 36 70 78 92 35 292 34 117 143 166 157 58 279 226 104 199 261 314 200 254 237 232 144 196 187
311 298 236 37 311 240 62 65 285 260 295 284 312 355 2 356 31 9 156 8 112 60 213 150 114 9 20 63 27 101 137 115 280 161 200 195 223 224 189 215 200 206 198 186 164
267 346 50 339 213 46 49 6 291 270 314 302 322 309 352 12 18 114 7 22 84 128 103 144 111 10 12 189 164 136 138 162 183 198 243 117 254 8 265 237 210 214 183 161 150
339 357 351 305 41 40 68 215 293 -0 190 287 253 293 340 1 6 42 104 17 6 176 90 78 80 99 39 325 311 355 165 159 167 175 234 144 289 342 22 49 66 40 131 135 120
65 269 66 333 87 52 326 330 305 3 1 355 323 19 317 355 359 21 19 7 17 41 127 153 150 116 121 152 4 223 190 195 120 75 204 117 244 282 92 59 29 91 139 127 127
71 6 347 34 328 131 13 359 317 30 7 353 357 3 324 358 2 32 50 15 0 70 65 59 110 314 108 1 114 190 177 183 174 178 166 191 4 84 60 69 51 76 102 112 127
27 104 156 22 35 341 337 225 21 9 326 22 16 17 26 1 358 21 8 20 18 89 44 62 115 131 87 350 347 235 178 179 207 221 222 124 224 52 37 30 30 69 107 110 129
126 143 203 159 267 261 342 333 34 13 18 12 21 26 26 38 17 358 347 18 18 39 67 296 62 96 81 28 25 331 320 218 221 236 243 274 276 124 25 39 347 74 101 142 176
215 96 298 252 295 275 91 296 9 326 85 32 346 49 26 357 318 315 321 17 325 17 69 35 123 124 82 6 280 294 218 213 205 234 230 236 243 282 314 308 359 65 126 217 203